Location: Newark
(41.8083°N, 72.2500°W)
Time: 11:08:41
(UTC+00:00)

Altair - Pass Details

Date: 04 December 2021
Orbit: 1501 x 1683 km, 47.2° (Epoch: 20 January)

Event Time Altitude Azimuth Distance (km) Brightness Sun altitude
Rises 23:18:39 0° 279° (W) 4,723 11.3 -21.8°
Reaches altitude 10° 23:21:49 10° 283° (WNW) 3,718 10.4 -22.3°
Maximum altitude 23:31:05 63° 4° (N) 1,658 7.5 -24.0°
Enters shadow 23:34:36 40° 67° (ENE) 2,083 7.7 -24.7°
